This is the latest recevied weather packets stored in our database for station/object NO4D. If no packets are shown the sender has not sent any weather packets the latest 10 day(s).
| Time | Temp. | Humidity | Pressure | Rain* | Wind** | Luminosity | Snow |
|---|---|---|---|---|---|---|---|
| 1777413729 | 18.89° C | 82% | 1017.1 hPa | 0 mm | - | 77 W/m² | - |
| 1777413425 | 18.89° C | 82% | 1017.2 hPa | 0 mm | - | 266 W/m² | - |
| 1777413121 | 19.44° C | 81% | 1017.3 hPa | 0 mm | - | 148 W/m² | - |
| 1777412817 | 18.89° C | 82% | 1017.5 hPa | 0 mm | - | 187 W/m² | - |
| 1777412516 | 18.89° C | 81% | 1017.5 hPa | 0 mm | - | 137 W/m² | - |
| 1777412214 | 18.89° C | 82% | 1017.3 hPa | 0 mm | - | 215 W/m² | - |
| 1777411910 | 18.89° C | 82% | 1017.4 hPa | 0 mm | - | 316 W/m² | - |
| 1777411609 | 18.89° C | 82% | 1017.4 hPa | 0 mm | - | 200 W/m² | - |
| 1777411304 | 18.89° C | 82% | 1017.8 hPa | 0 mm | - | 291 W/m² | - |
| 1777411003 | 18.33° C | 84% | 1018.2 hPa | 0 mm | - | 317 W/m² | - |
| 1777410703 | 18.33° C | 83% | 1018.2 hPa | 0 mm | - | 221 W/m² | - |
| 1777410398 | 18.33° C | 83% | 1018.1 hPa | 0 mm | - | 199 W/m² | - |
| 1777410096 | 18.33° C | 83% | 1018.4 hPa | 0 mm | - | 191 W/m² | - |
| 1777409792 | 17.78° C | 84% | 1018.6 hPa | 0 mm | - | 205 W/m² | - |
| 1777409488 | 17.78° C | 84% | 1018.7 hPa | 0 mm | - | 194 W/m² | - |
| 1777409184 | 17.78° C | 84% | 1018.7 hPa | 0 mm | - | 152 W/m² | - |
| 1777408880 | 17.78° C | 84% | 1018.8 hPa | 0 mm | - | 157 W/m² | - |
| 1777408577 | 17.78° C | 85% | 1018.8 hPa | 0 mm | - | 185 W/m² | - |
| 1777408272 | 17.78° C | 84% | 1018.8 hPa | 0 mm | - | 198 W/m² | - |
| 1777407971 | 17.78° C | 84% | 1018.7 hPa | 0 mm | - | 219 W/m² | - |
| 1777407670 | 17.78° C | 84% | 1018.6 hPa | 0 mm | - | 206 W/m² | - |
| 1777407370 | 17.78° C | 84% | 1018.7 hPa | 0 mm | - | 231 W/m² | - |
| 1777407065 | 17.78° C | 84% | 1018.8 hPa | 0 mm | - | 223 W/m² | - |
| 1777406761 | 17.78° C | 83% | 1018.9 hPa | 0 mm | - | 253 W/m² | - |
| 1777406461 | 17.78° C | 84% | 1019 hPa | 0 mm | - | 252 W/m² | - |
* Rain latest hour (hover to see other rain measurements)
** Current wind speed in m/s (hover to see current wind gust speed)